Weather Roundup
Issued by NWS

Home | Current Version | Previous Version | Graphics & Text | Print | Product List | Glossary Off
Versions: 1 2 3 4 5 6 7 8 9 10 11 12 13 14 15 16 17 18 19 20 21 22 23 24 25 26 27 28 29 30 31 32 33 34 35 36 37 38 39 40 41 42 43 44 45 46 47 48 49 50

369
NZUS93 KARX 270110
HRRWXR

CURRENT HOURLY OBSERVATIONS ACROSS
MUCH OF THE UPPER MISSISSIPPI VALLEY
NATIONAL WEATHER SERVICE LA CROSSE WI
800 PM CDT THU MAY 26 2016


...SOUTHEAST MINNESOTA...


CITY           SKY/WX    TMP DP  RH WIND       PRES   REMARKS
ROCHESTER      CLOUDY    71  64  78 S5        29.87R
ROCHESTER/MAYO FAIR      75  51  43 W3        29.86R
WINONA         CLOUDY    73  61  64 CALM      29.84R
AUSTIN         CLOUDY    73  54  49 CALM      29.86S
ALBERT LEA     CLOUDY    72  59  64 CALM      29.84F
DODGE CENTER   CLOUDY    72  55  56 SW3       29.86S
PRESTON        CLOUDY    73  55  54 W5        29.87S
OWATONNA       CLOUDY    73  57  56 CALM      29.86
FARIBAULT      CLOUDY    72  57  60 CALM      29.86R
$$

...ELSEWHERE IN MINNESOTA...


CITY           SKY/WX    TMP DP  RH WIND       PRES   REMARKS
MINNEAPOLIS    CLOUDY    78  49  35 SW3       29.83R
INTNL FALLS    CLEAR     70  52  52 W6        29.71F
DULUTH         PTCLDY    52  49  89 SE7       29.81R
RED WING       CLOUDY    73  61  64 CALM      29.82S
REDWOOD FALLS  CLOUDY    77  49  37 SW8       29.81R
MANKATO        CLOUDY    75  48  38 S6        29.85R
WORTHINGTON    CLOUDY    69  62  78 SE8       29.86S
FAIRMONT       CLOUDY    73  45  35 SE5       29.85R
$$

...SOUTHWEST WISCONSIN...


CITY           SKY/WX    TMP DP  RH WIND       PRES   REMARKS
LA CROSSE      CLOUDY    76  60  57 CALM      29.83R
PRAIRIE DU CHI CLOUDY    74  63  67 CALM      29.86R
BOSCOBEL       CLOUDY    76  63  64 CALM      29.87R
LONE ROCK      PTCLDY    78  57  48 W5        29.87R
PLATTEVILLE    CLOUDY    77  57  49 CALM      29.88R
FORT MC COY    CLOUDY    73  59  60 CALM      29.86R
CAMP DOUGLAS   CLOUDY    73  66  77 SW5       29.85R
MAUSTON-NEW LI CLOUDY    72  63  72 CALM      29.85R
VIROQUA        FAIR      74  60  61 CALM      29.88R
WIS DELLS      PTCLDY    75  56  52 CALM      29.87R
$$

...ELSEWHERE IN WISCONSIN...


CITY           SKY/WX    TMP DP  RH WIND       PRES   REMARKS
MILWAUKEE      MOCLDY    82  54  37 W5        29.86R
MADISON        MOCLDY    74  56  53 CALM      29.86R
GREEN BAY      CLOUDY    76  58  53 W3        29.84R
EAU CLAIRE     CLOUDY    73  54  51 W5        29.82R
BLACK RVR FLS  FAIR      74  56  54 CALM      29.84R
MEDFORD        MOCLDY    71  58  64 SW3       29.86R
WAUSAU         CLOUDY    74  58  57 CALM      29.84R
WIS RAPIDS     CLOUDY    72  59  63 CALM      29.86R
MARSHFIELD     CLOUDY    73  57  57 W5        29.85R
RICE LAKE      CLOUDY    74  53  47 CALM      29.85R
$$

...NORTHEAST IOWA...


CITY           SKY/WX    TMP DP  RH WIND       PRES   REMARKS
WATERLOO       CLOUDY    73  64  73 SW9       29.89R
DUBUQUE        CLOUDY    75  60  59 SE3       29.89R
DECORAH        CLOUDY    75  59  57 CALM      29.87R
MASON CITY     CLOUDY    71  65  81 S9        29.88R
CHARLES CITY   CLOUDY    75  64  69 S6        29.88R
OELWEIN        CLOUDY    73  64  73 SW5       29.90R
$$

...ELSEWHERE IN IOWA...


CITY           SKY/WX    TMP DP  RH WIND       PRES   REMARKS
DES MOINES     RAIN      66  60  81 SW10      29.97S
IOWA CITY      CLOUDY    78  63  59 W5        29.88R
FORT DODGE     CLOUDY    66  55  68 S17G25    29.87S
MARSHALLTOWN   CLOUDY    73  64  73 SW12      29.91R
CEDAR RAPIDS   CLOUDY    73  66  78 W8        29.87R
$$

...NORTHERN ILLINOIS...


CITY           SKY/WX    TMP DP  RH WIND       PRES   REMARKS
CHICAGO-OHARE  MOCLDY    79  63  57 CALM      29.85R
CHICAGO-MIDWAY MOCLDY    83  62  49 S3        29.85R
MOLINE         CLOUDY    80  64  58 S3        29.84R
ROCKFORD       CLOUDY    80  63  55 CALM      29.87R
PEORIA         CLOUDY    78  68  71 S8        29.87R
$$

NOTE: "FAIR" INDICATES FEW OR NO CLOUDS BELOW 12,000 FEET WITH NO
SIGNIFICANT WEATHER AND/OR OBSTRUCTIONS TO VISIBILITY. WIND
SPEEDS ARE IN MILES-PER-HOUR.




USA.gov is the U.S. government's official web portal to all federal, state and local government web resources and services.